• In Hungary
  • List of Countries
  • For 7 days
  • Water Temperature
  • Satellite Maps
  • Weather Map
  • News
  • Weather Widgets
  • user-avatar
    Login

    Hourly Weather Giumri

    Today, 21 August, Tuesday

    Time Temperature Precipitation Wind Pressure Humidity
    00:00 +15°C° 0.3 mm 2 mps 635 mmHg 91%
    01:00 +15°C° 0.3 mm 2 mps 635 mmHg 91%
    02:00 +14°C° 0.3 mm 2 mps 635 mmHg 92%
    03:00 +14°C° 0 mm 2 mps 635 mmHg 93%
    04:00 +14°C° 0.2 mm 2 mps 635 mmHg 93%
    05:00 +14°C° 0.2 mm 2 mps 635 mmHg 93%
    06:00 +14°C° 0.2 mm 2 mps 635 mmHg 93%
    07:00 +16°C° 0 mm 2 mps 635 mmHg 85%
    08:00 +18°C° 0 mm 2 mps 636 mmHg 77%
    09:00 +19°C° 0 mm 2 mps 636 mmHg 70%
    10:00 +21°C° 0.1 mm 2 mps 636 mmHg 64%
    11:00 +23°C° 0.1 mm 2 mps 636 mmHg 58%
    12:00 +25°C° 0.1 mm 2 mps 636 mmHg 53%
    13:00 +25°C° 0.2 mm 2 mps 636 mmHg 51%
    14:00 +26°C° 0.2 mm 2 mps 636 mmHg 50%
    15:00 +26°C° 0.2 mm 2 mps 636 mmHg 48%
    16:00 +25°C° 0.4 mm 2 mps 636 mmHg 53%
    17:00 +25°C° 0.4 mm 2 mps 635 mmHg 57%
    18:00 +24°C° 0.4 mm 2 mps 635 mmHg 61%
    19:00 +21°C° 0.2 mm 2 mps 635 mmHg 68%
    20:00 +19°C° 0.2 mm 2 mps 634 mmHg 76%
    21:00 +17°C° 0.2 mm 2 mps 634 mmHg 83%
    22:00 +17°C° 0.2 mm 2 mps 634 mmHg 84%
    23:00 +16°C° 0.2 mm 2 mps 634 mmHg 85%

    Tomorrow, 22 August, Wednesday

    Time Temperature Precipitation Wind Pressure Humidity
    00:00 +16°C° 0.2 mm 2 mps 634 mmHg 86%
    01:00 +15°C° 0.1 mm 2 mps 634 mmHg 86%
    02:00 +15°C° 0.1 mm 2 mps 634 mmHg 86%
    03:00 +15°C° 0.1 mm 2 mps 634 mmHg 86%
    04:00 +15°C° 0 mm 2 mps 634 mmHg 85%
    05:00 +15°C° 0 mm 2 mps 634 mmHg 85%
    06:00 +15°C° 0 mm 2 mps 634 mmHg 85%
    07:00 +17°C° 0 mm 2 mps 635 mmHg 76%
    08:00 +20°C° 0 mm 1 mps 635 mmHg 68%
    09:00 +23°C° 0 mm 1 mps 636 mmHg 59%
    10:00 +24°C° 0.3 mm 1 mps 636 mmHg 55%
    11:00 +25°C° 0.3 mm 1 mps 636 mmHg 50%
    12:00 +27°C° 0.3 mm 2 mps 636 mmHg 46%
    13:00 +27°C° 0.4 mm 2 mps 636 mmHg 46%
    14:00 +27°C° 0.4 mm 2 mps 636 mmHg 46%
    15:00 +27°C° 0.4 mm 2 mps 635 mmHg 46%
    16:00 +26°C° 0.7 mm 3 mps 635 mmHg 51%
    17:00 +25°C° 0.7 mm 3 mps 635 mmHg 57%
    18:00 +24°C° 0.7 mm 3 mps 635 mmHg 62%
    19:00 +21°C° 0.2 mm 3 mps 635 mmHg 68%
    20:00 +19°C° 0.2 mm 3 mps 635 mmHg 74%
    21:00 +18°C° 0.2 mm 3 mps 635 mmHg 80%
    22:00 +17°C° 0.1 mm 3 mps 635 mmHg 80%
    23:00 +17°C° 0.1 mm 3 mps 635 mmHg 81%

    Day after tomorrow, 23 August, Thursday

    Time Temperature Precipitation Wind Pressure Humidity
    00:00 +16°C° 0.1 mm 3 mps 635 mmHg 81%
    01:00 +16°C° 0.1 mm 2 mps 635 mmHg 82%
    02:00 +16°C° 0.1 mm 2 mps 635 mmHg 82%
    03:00 +16°C° 0.1 mm 2 mps 635 mmHg 83%
    04:00 +15°C° 0 mm 2 mps 635 mmHg 83%
    05:00 +15°C° 0 mm 2 mps 635 mmHg 84%
    06:00 +15°C° 0 mm 2 mps 635 mmHg 84%
    07:00 +17°C° 0 mm 2 mps 635 mmHg 76%
    08:00 +19°C° 0 mm 2 mps 636 mmHg 68%
    09:00 +21°C° 0 mm 2 mps 636 mmHg 60%
    10:00 +23°C° 0.1 mm 2 mps 636 mmHg 57%
    11:00 +25°C° 0.1 mm 3 mps 636 mmHg 54%
    12:00 +26°C° 0.1 mm 3 mps 636 mmHg 50%
    13:00 +26°C° 0.3 mm 3 mps 636 mmHg 50%
    14:00 +26°C° 0.3 mm 3 mps 636 mmHg 50%
    15:00 +27°C° 0.3 mm 3 mps 635 mmHg 50%
    16:00 +26°C° 0.4 mm 3 mps 635 mmHg 55%
    17:00 +25°C° 0.4 mm 3 mps 635 mmHg 59%
    18:00 +24°C° 0.4 mm 3 mps 635 mmHg 64%
    19:00 +21°C° 0.2 mm 3 mps 635 mmHg 69%
    20:00 +19°C° 0.2 mm 3 mps 635 mmHg 74%
    21:00 +17°C° 0.2 mm 3 mps 635 mmHg 79%
    22:00 +17°C° 0 mm 2 mps 635 mmHg 80%
    23:00 +16°C° 0 mm 2 mps 635 mmHg 80%

    24 August, Friday

    Time Temperature Precipitation Wind Pressure Humidity
    00:00 +16°C° 0 mm 2 mps 635 mmHg 80%
    01:00 +16°C° 0 mm 2 mps 635 mmHg 81%
    02:00 +15°C° 0 mm 2 mps 634 mmHg 81%
    03:00 +15°C° 0 mm 2 mps 634 mmHg 81%
    04:00 +15°C° 0 mm 2 mps 634 mmHg 80%
    05:00 +14°C° 0 mm 2 mps 634 mmHg 79%
    06:00 +14°C° 0 mm 2 mps 634 mmHg 78%
    07:00 +17°C° 0 mm 2 mps 635 mmHg 71%
    08:00 +19°C° 0 mm 2 mps 635 mmHg 63%
    09:00 +21°C° 0 mm 2 mps 636 mmHg 56%
    10:00 +24°C° 0 mm 2 mps 636 mmHg 52%
    11:00 +25°C° 0 mm 3 mps 636 mmHg 48%
    12:00 +27°C° 0 mm 3 mps 636 mmHg 45%
    13:00 +27°C° 0 mm 3 mps 636 mmHg 44%
    14:00 +27°C° 0 mm 3 mps 635 mmHg 43%
    15:00 +28°C° 0 mm 3 mps 635 mmHg 42%
    16:00 +27°C° 0 mm 3 mps 635 mmHg 48%
    17:00 +25°C° 0 mm 3 mps 634 mmHg 54%
    18:00 +24°C° 0 mm 3 mps 634 mmHg 60%
    19:00 +21°C° 0 mm 3 mps 634 mmHg 66%
    20:00 +19°C° 0 mm 3 mps 634 mmHg 72%
    21:00 +18°C° 0 mm 3 mps 634 mmHg 79%
    22:00 +17°C° 0 mm 2 mps 634 mmHg 78%
    23:00 +17°C° 0 mm 2 mps 634 mmHg 77%

    25 August, Saturday

    Time Temperature Precipitation Wind Pressure Humidity
    00:00 +16°C° 0 mm 2 mps 634 mmHg 76%
    01:00 +16°C° 0 mm 2 mps 633 mmHg 77%
    02:00 +15°C° 0 mm 2 mps 633 mmHg 78%
    03:00 +15°C° 0 mm 2 mps 633 mmHg 78%
    04:00 +15°C° 0 mm 2 mps 633 mmHg 79%
    05:00 +15°C° 0 mm 2 mps 633 mmHg 79%
    06:00 +15°C° 0 mm 2 mps 633 mmHg 80%
    07:00 +17°C° 0 mm 2 mps 634 mmHg 70%
    08:00 +20°C° 0 mm 2 mps 634 mmHg 61%
    09:00 +23°C° 0 mm 2 mps 635 mmHg 52%
    10:00 +25°C° 0 mm 2 mps 635 mmHg 48%
    11:00 +26°C° 0 mm 2 mps 635 mmHg 44%
    12:00 +28°C° 0 mm 3 mps 635 mmHg 39%
    13:00 +28°C° 0 mm 3 mps 635 mmHg 38%
    14:00 +29°C° 0 mm 2 mps 635 mmHg 37%
    15:00 +29°C° 0 mm 2 mps 635 mmHg 37%
    16:00 +28°C° 0 mm 3 mps 634 mmHg 43%
    17:00 +26°C° 0 mm 3 mps 634 mmHg 50%
    18:00 +25°C° 0 mm 3 mps 633 mmHg 57%
    19:00 +22°C° 0 mm 3 mps 633 mmHg 65%
    20:00 +20°C° 0 mm 3 mps 633 mmHg 72%
    21:00 +18°C° 0 mm 3 mps 633 mmHg 79%
    22:00 +17°C° 0 mm 3 mps 633 mmHg 78%
    23:00 +17°C° 0 mm 2 mps 633 mmHg 76%

    26 August, Sunday

    Time Temperature Precipitation Wind Pressure Humidity
    00:00 +16°C° 0 mm 2 mps 633 mmHg 75%
    01:00 +16°C° 0 mm 2 mps 633 mmHg 75%
    02:00 +15°C° 0 mm 2 mps 633 mmHg 75%
    03:00 +15°C° 0 mm 2 mps 632 mmHg 75%
    04:00 +15°C° 0 mm 2 mps 632 mmHg 75%
    05:00 +15°C° 0 mm 2 mps 632 mmHg 76%
    06:00 +15°C° 0 mm 2 mps 632 mmHg 76%
    07:00 +17°C° 0 mm 2 mps 633 mmHg 67%
    08:00 +20°C° 0 mm 2 mps 634 mmHg 58%
    09:00 +23°C° 0 mm 2 mps 634 mmHg 49%
    10:00 +25°C° 0 mm 2 mps 634 mmHg 45%
    11:00 +27°C° 0 mm 3 mps 634 mmHg 40%
    12:00 +29°C° 0 mm 3 mps 634 mmHg 36%
    13:00 +29°C° 0 mm 3 mps 634 mmHg 34%
    14:00 +30°C° 0 mm 3 mps 633 mmHg 33%
    15:00 +30°C° 0 mm 3 mps 633 mmHg 32%
    16:00 +28°C° 0 mm 3 mps 633 mmHg 39%
    17:00 +27°C° 0 mm 3 mps 632 mmHg 45%
    18:00 +25°C° 0 mm 3 mps 632 mmHg 52%
    19:00 +22°C° 0 mm 3 mps 632 mmHg 59%
    20:00 +20°C° 0 mm 3 mps 631 mmHg 66%
    21:00 +18°C° 0 mm 3 mps 631 mmHg 73%
    22:00 +17°C° 0 mm 2 mps 631 mmHg 72%
    23:00 +17°C° 0 mm 2 mps 631 mmHg 71%
    Show more